Valley City, ND

11:06 AM CST on December 11, 2019 (GMT -0600)
Valley City

Weather History for KBAC - October, 2019

Change the Weather History Date:

Wednesday, October 16, 2019

  Actual Average (KJMS) Record (KJMS)
Temperature  
Mean Temperature 36 °F 44 °F  
Max Temperature 42 °F 56 °F 85 °F (1956)
Min Temperature 30 °F 33 °F 14 °F (1919)
Degree Days  
Heating Degree Days 29 21  
Month to date heating degree days 280  
Since 1 July heating degree days 598  
Cooling Degree Days 0 0  
Month to date cooling degree days 0  
Year to date cooling degree days 445  
Moisture  
Dew Point 35 °F    
Average Humidity 92    
Maximum Humidity 100    
Minimum Humidity 76    
Precipitation  
Precipitation 0.00 in 0.06 in 1.42 in (1980)
Month to date precipitation 0.89  
Year to date precipitation 17.08  
Sea Level Pressure  
Sea Level Pressure 30.09 in    
Wind  
Wind Speed 7 mph (SW)    
Max Wind Speed 13 mph    
Max Gust Speed 14 mph    
Visibility 10 miles    
Events      
T = Trace of Precipitation, MM = Missing Value Source: NWS Daily Summary

Daily Weather History Graph

Daily Weather History Graph

Search for Another Location

Airport or City:

Astronomy

Oct. 16, 2019 Rise Set
Actual Time 7:51 AM CDT 6:43 PM CDT
Civil Twilight 7:20 AM CDT 7:13 PM CDT
Nautical Twilight 6:45 AM CDT 7:49 PM CDT
Astronomical Twilight 6:09 AM CDT 8:24 PM CDT
Moon 8:28 PM CDT (10/16) 10:30 AM CDT (10/16)
Length of Visible Light 11h 53m
Length of Day
10h 52m
Waning Gibbous, 92% of the Moon is Illuminated
Oct 16
Waning Gibbous
Oct 21
Last Quarter
Oct 27
New
Nov 4
First Quarter
Nov 12
Full

Hourly Weather History & Observations

Time (CDT) Temp. Windchill Dew Point Humidity Pressure Visibility Wind Dir Wind Speed Gust Speed Precip Events Conditions
12:15 AM 35.6 °F 28.0 °F 35.6 °F 100% 30.19 in 10.0 mi NW 10.4 mph - N/A   Overcast
12:35 AM 35.6 °F 29.2 °F 35.6 °F 100% 30.19 in 10.0 mi NW 8.1 mph - N/A   Overcast
12:55 AM 35.6 °F 29.2 °F 35.6 °F 100% 30.19 in 10.0 mi NW 8.1 mph - N/A   Overcast
1:15 AM 35.6 °F 28.6 °F 35.6 °F 100% 30.19 in 10.0 mi WNW 9.2 mph - N/A   Overcast
1:35 AM 35.6 °F 28.0 °F 35.6 °F 100% 30.20 in 10.0 mi WNW 10.4 mph - N/A   Overcast
1:55 AM 35.6 °F 28.6 °F 35.6 °F 100% 30.19 in 10.0 mi NW 9.2 mph - N/A   Overcast
2:15 AM 35.6 °F 28.6 °F 35.6 °F 100% 30.19 in 10.0 mi NW 9.2 mph - N/A   Overcast
2:35 AM 35.6 °F 29.9 °F 35.6 °F 100% 30.19 in 10.0 mi NW 6.9 mph - N/A   Overcast
2:55 AM 35.6 °F 31.7 °F 35.6 °F 100% 30.19 in 10.0 mi NW 4.6 mph - N/A   Overcast
3:15 AM 35.6 °F 30.7 °F 35.6 °F 100% 30.19 in 10.0 mi WNW 5.8 mph - N/A   Overcast
3:35 AM 35.6 °F 30.7 °F 35.6 °F 100% 30.19 in 10.0 mi WNW 5.8 mph - N/A   Overcast
3:55 AM 35.6 °F 29.9 °F 35.6 °F 100% 30.19 in 10.0 mi West 6.9 mph - N/A   Overcast
4:15 AM 35.6 °F 29.9 °F 35.6 °F 100% 30.18 in 10.0 mi West 6.9 mph - N/A   Overcast
4:35 AM 35.6 °F 29.9 °F 35.6 °F 100% 30.18 in 10.0 mi WNW 6.9 mph - N/A   Overcast
4:55 AM 33.8 °F 30.8 °F 33.8 °F 100% 30.17 in 10.0 mi WNW 3.5 mph - N/A   Overcast
5:15 AM 33.8 °F 29.6 °F 33.8 °F 100% 30.17 in 10.0 mi West 4.6 mph - N/A   Overcast
5:35 AM 32.0 °F 25.6 °F 32.0 °F 100% 30.17 in 10.0 mi West 6.9 mph - N/A   Overcast
5:55 AM 30.2 °F 24.3 °F 30.2 °F 100% 30.16 in 10.0 mi WNW 5.8 mph - N/A   Scattered Clouds
6:15 AM 30.2 °F 22.6 °F 30.2 °F 100% 30.17 in 10.0 mi WNW 8.1 mph - N/A   Clear
6:35 AM 30.2 °F 23.4 °F 30.2 °F 100% 30.17 in 10.0 mi West 6.9 mph - N/A   Clear
6:55 AM 30.2 °F 25.4 °F 30.2 °F 100% 30.17 in 10.0 mi NNW 4.6 mph - N/A   Clear
7:15 AM 30.2 °F 25.4 °F 30.2 °F 100% 30.16 in 10.0 mi NNW 4.6 mph - N/A   Clear
7:35 AM - - - N/A% 30.15 in 10.0 mi Calm Calm - N/A   Partly Cloudy
7:55 AM 30.2 °F - 30.2 °F 100% 30.15 in 10.0 mi Calm Calm - N/A   Clear
8:15 AM 30.2 °F - 30.2 °F 100% 30.15 in 10.0 mi Calm Calm - N/A   Clear
8:35 AM - - - N/A% 30.15 in 10.0 mi Calm Calm - N/A   Clear
9:15 AM 33.8 °F - 33.8 °F 100% 30.16 in 10.0 mi Calm Calm - N/A   Clear
9:35 AM 35.6 °F - 35.6 °F 100% 30.15 in 10.0 mi Calm Calm - N/A   Clear
9:55 AM 33.8 °F - 33.8 °F 100% 30.14 in 10.0 mi Calm Calm - N/A   Clear
10:15 AM 35.6 °F - 35.6 °F 100% 30.15 in 10.0 mi Calm Calm - N/A   Clear
10:35 AM 37.4 °F 32.8 °F 37.4 °F 100% 30.15 in 10.0 mi WSW 5.8 mph - N/A   Clear
10:55 AM 39.2 °F 37.0 °F 35.6 °F 87% 30.15 in 10.0 mi West 3.5 mph - N/A   Clear
11:35 AM 39.2 °F 34.2 °F 33.8 °F 81% 30.15 in 10.0 mi West 6.9 mph - N/A   Clear
12:15 PM 41.0 °F 37.1 °F 33.8 °F 76% 30.13 in 10.0 mi SW 5.8 mph - N/A   Partly Cloudy
12:35 PM 41.0 °F 36.4 °F 33.8 °F 76% 30.14 in 10.0 mi South 6.9 mph - N/A   Clear
12:55 PM 41.0 °F 35.2 °F 33.8 °F 76% 30.13 in 10.0 mi SSW 9.2 mph - N/A   Clear
1:15 PM 41.0 °F 34.7 °F 33.8 °F 76% 30.12 in 10.0 mi SW 10.4 mph - N/A   Scattered Clouds
1:35 PM 41.0 °F 37.1 °F 33.8 °F 76% 30.10 in 10.0 mi SSW 5.8 mph 13.8 mph N/A   Scattered Clouds
1:55 PM 41.0 °F 35.2 °F 35.6 °F 81% 30.08 in 10.0 mi South 9.2 mph - N/A   Scattered Clouds
2:15 PM 41.0 °F 35.2 °F 33.8 °F 76% 30.08 in 10.0 mi South 9.2 mph - N/A   Clear
2:35 PM 41.0 °F 35.8 °F 35.6 °F 81% 30.08 in 10.0 mi SSW 8.1 mph - N/A   Partly Cloudy
2:55 PM 41.0 °F 34.7 °F 35.6 °F 81% 30.06 in 10.0 mi South 10.4 mph - N/A   Partly Cloudy
3:15 PM 41.0 °F 34.3 °F 35.6 °F 81% 30.03 in 10.0 mi South 11.5 mph - N/A   Clear
3:35 PM 41.0 °F 34.3 °F 35.6 °F 81% 30.04 in 10.0 mi South 11.5 mph - N/A   Mostly Cloudy
3:55 PM 41.0 °F 34.3 °F 35.6 °F 81% 30.03 in 10.0 mi South 11.5 mph - N/A   Overcast
4:15 PM 42.8 °F 37.0 °F 35.6 °F 76% 30.02 in 10.0 mi South 10.4 mph - N/A   Mostly Cloudy
4:35 PM 42.8 °F 37.0 °F 35.6 °F 76% 30.01 in 10.0 mi South 10.4 mph - N/A   Clear
4:55 PM 42.8 °F 37.0 °F 35.6 °F 76% 30.00 in 10.0 mi South 10.4 mph - N/A   Clear
5:15 PM 42.8 °F 36.2 °F 35.6 °F 76% 30.01 in 10.0 mi South 12.7 mph - N/A   Clear
5:35 PM 42.8 °F 37.0 °F 35.6 °F 76% 30.01 in 10.0 mi South 10.4 mph - N/A   Clear
5:55 PM 42.8 °F 37.0 °F 35.6 °F 76% 30.00 in 10.0 mi South 10.4 mph - N/A   Clear
6:15 PM 41.0 °F 34.7 °F 35.6 °F 81% 29.98 in 10.0 mi South 10.4 mph - N/A   Clear
6:35 PM 41.0 °F 35.2 °F 35.6 °F 81% 29.98 in 10.0 mi South 9.2 mph - N/A   Clear
6:55 PM 39.2 °F 35.0 °F 35.6 °F 87% 29.99 in 10.0 mi SSE 5.8 mph - N/A   Clear
7:15 PM 37.4 °F 32.8 °F 33.8 °F 87% 29.99 in 10.0 mi SSE 5.8 mph - N/A   Clear
7:35 PM 37.4 °F 32.8 °F 35.6 °F 93% 29.98 in 10.0 mi SSE 5.8 mph - N/A   Clear
7:55 PM 37.4 °F 31.4 °F 35.6 °F 93% 29.97 in 10.0 mi SSE 8.1 mph - N/A   Clear
8:15 PM 37.4 °F 31.4 °F 35.6 °F 93% 29.97 in 10.0 mi SSE 8.1 mph - N/A   Clear
8:35 PM 35.6 °F 29.9 °F 35.6 °F 100% 29.98 in 10.0 mi SSE 6.9 mph - N/A   Clear
8:55 PM 35.6 °F 31.7 °F 33.8 °F 93% 29.98 in 10.0 mi SSE 4.6 mph - N/A   Clear
9:15 PM 35.6 °F 31.7 °F 35.6 °F 100% 29.98 in 10.0 mi SSE 4.6 mph - N/A   Clear
9:35 PM - - - N/A% 29.98 in 10.0 mi SE 6.9 mph - N/A   Clear
9:55 PM 35.6 °F 30.7 °F 35.6 °F 100% 29.98 in 10.0 mi SSE 5.8 mph - N/A   Clear
10:15 PM 35.6 °F 29.2 °F 35.6 °F 100% 29.97 in 10.0 mi SSE 8.1 mph - N/A   Clear
10:35 PM 33.8 °F 27.7 °F 33.8 °F 100% 29.97 in 10.0 mi SE 6.9 mph - N/A   Clear
10:55 PM 33.8 °F 27.7 °F 33.8 °F 100% 29.96 in 10.0 mi SE 6.9 mph - N/A   Clear
11:15 PM 33.8 °F 27.7 °F 33.8 °F 100% 29.96 in 10.0 mi SSE 6.9 mph - N/A   Clear
11:35 PM 33.8 °F 27.7 °F 33.8 °F 100% 29.96 in 10.0 mi SSE 6.9 mph - N/A   Clear
11:55 PM 33.8 °F 26.4 °F 33.8 °F 100% 29.96 in 10.0 mi SE 9.2 mph - N/A   Clear